Time,TemperatureF,DewpointF,PressureIn,WindDirection,WindDirectionDegrees,WindSpeedMPH,WindSpeedGustMPH,Humidity,HourlyPrecipIn,Conditions,Clouds,dailyrainin,SoftwareType,DateUTC
2013-04-06 00:02:00,33.0,31.0,30.00,South,177,4.0,-999.0,93,-99.99,,,-99.99,,2013-04-06 06:02:00,
2013-04-06 00:11:00,33.0,31.0,30.00,South,177,4.0,-999.0,93,-99.99,,,-99.99,,2013-04-06 06:11:00,
2013-04-06 00:22:00,33.0,31.0,30.00,South,176,0.0,-999.0,92,-99.99,,,-99.99,,2013-04-06 06:22:00,
2013-04-06 00:32:00,33.0,31.0,30.00,WNW,291,0.0,-999.0,93,-99.99,,,-99.99,,2013-04-06 06:32:00,
2013-04-06 00:42:00,33.0,31.0,30.00,WNW,291,0.0,-999.0,93,-99.99,,,-99.99,,2013-04-06 06:42:00,
2013-04-06 00:52:00,32.0,30.0,29.99,WNW,291,0.0,-999.0,92,-99.99,,,-99.99,,2013-04-06 06:52:00,
2013-04-06 01:02:00,32.0,30.0,30.00,WNW,291,0.0,-999.0,92,-99.99,,,-99.99,,2013-04-06 07:02:00,
2013-04-06 01:11:00,32.0,30.0,30.00,WNW,291,0.0,-999.0,92,-99.99,,,-99.99,,2013-04-06 07:11:00,
2013-04-06 01:22:00,31.0,29.0,29.99,WNW,291,0.0,-999.0,91,-99.99,,,-99.99,,2013-04-06 07:22:00,
2013-04-06 01:32:00,30.0,28.0,29.99,WNW,291,0.0,-999.0,91,-99.99,,,-99.99,,2013-04-06 07:32:00,
2013-04-06 01:42:00,30.0,28.0,29.99,WNW,291,0.0,-999.0,91,-99.99,,,-99.99,,2013-04-06 07:42:00,
2013-04-06 01:52:00,29.0,27.0,29.99,WNW,291,0.0,-999.0,91,-99.99,,,-99.99,,2013-04-06 07:52:00,
2013-04-06 02:02:00,30.0,28.0,29.99,WNW,291,1.0,-999.0,92,-99.99,,,-99.99,,2013-04-06 08:02:00,
2013-04-06 02:12:00,30.0,28.0,29.99,WNW,291,1.0,-999.0,92,-99.99,,,-99.99,,2013-04-06 08:12:00,
2013-04-06 02:22:00,30.0,28.0,29.98,West,266,1.0,-999.0,92,-99.99,,,-99.99,,2013-04-06 08:22:00,
2013-04-06 02:32:00,30.0,28.0,29.96,SW,221,1.0,-999.0,91,-99.99,,,-99.99,,2013-04-06 08:32:00,
2013-04-06 02:42:00,30.0,28.0,29.96,SW,221,1.0,-999.0,91,-99.99,,,-99.99,,2013-04-06 08:42:00,
2013-04-06 02:52:00,30.0,28.0,29.96,SW,221,1.0,-999.0,92,-99.99,,,-99.99,,2013-04-06 08:52:00,
2013-04-06 03:01:00,30.0,28.0,29.96,SW,221,0.0,-999.0,91,-99.99,,,-99.99,,2013-04-06 09:01:00,
2013-04-06 03:12:00,30.0,28.0,29.96,SW,221,0.0,-999.0,91,-99.99,,,-99.99,,2013-04-06 09:12:00,
2013-04-06 03:21:00,29.0,26.0,29.96,South,178,0.0,-999.0,90,-99.99,,,-99.99,,2013-04-06 09:21:00,
2013-04-06 03:32:00,29.0,27.0,29.96,SW,214,1.0,-999.0,91,-99.99,,,-99.99,,2013-04-06 09:32:00,
2013-04-06 03:42:00,29.0,27.0,29.96,SW,214,1.0,-999.0,91,-99.99,,,-99.99,,2013-04-06 09:42:00,
2013-04-06 03:53:00,30.0,28.0,29.96,SW,223,2.0,-999.0,91,-99.99,,,-99.99,,2013-04-06 09:53:00,
2013-04-06 04:02:00,30.0,28.0,29.97,SW,229,2.0,-999.0,91,-99.99,,,-99.99,,2013-04-06 10:02:00,
2013-04-06 04:12:00,30.0,28.0,29.97,SW,229,2.0,-999.0,91,-99.99,,,-99.99,,2013-04-06 10:12:00,
2013-04-06 04:22:00,30.0,28.0,29.97,SSW,213,4.0,-999.0,91,-99.99,,,-99.99,,2013-04-06 10:22:00,
2013-04-06 04:32:00,30.0,27.0,29.98,South,189,1.0,-999.0,90,-99.99,,,-99.99,,2013-04-06 10:32:00,
2013-04-06 04:42:00,30.0,27.0,29.98,South,189,1.0,-999.0,90,-99.99,,,-99.99,,2013-04-06 10:42:00,
2013-04-06 04:52:00,28.0,26.0,29.98,ESE,111,0.0,-999.0,92,-99.99,,,-99.99,,2013-04-06 10:52:00,
2013-04-06 05:02:00,28.0,26.0,29.96,ESE,111,0.0,-999.0,91,-99.99,,,-99.99,,2013-04-06 11:02:00,
2013-04-06 05:12:00,28.0,26.0,29.96,ESE,111,0.0,-999.0,91,-99.99,,,-99.99,,2013-04-06 11:12:00,
2013-04-06 05:22:00,27.0,24.0,29.96,ESE,111,0.0,-999.0,90,-99.99,,,-99.99,,2013-04-06 11:22:00,
2013-04-06 05:32:00,27.0,25.0,29.97,ESE,111,0.0,-999.0,92,-99.99,,,-99.99,,2013-04-06 11:32:00,
2013-04-06 05:42:00,27.0,25.0,29.97,ESE,111,0.0,-999.0,92,-99.99,,,-99.99,,2013-04-06 11:42:00,
2013-04-06 05:52:00,26.0,23.0,29.96,ESE,111,1.0,-999.0,90,-99.99,,,-99.99,,2013-04-06 11:52:00,
2013-04-06 06:01:00,25.0,23.0,29.97,East,99,1.0,-999.0,92,-99.99,,,-99.99,,2013-04-06 12:01:00,
2013-04-06 06:11:00,25.0,23.0,29.97,East,99,1.0,-999.0,92,-99.99,,,-99.99,,2013-04-06 12:11:00,
2013-04-06 06:21:00,26.0,24.0,29.97,East,101,0.0,-999.0,92,-99.99,,,-99.99,,2013-04-06 12:21:00,
2013-04-06 06:32:00,26.0,24.0,29.98,East,101,0.0,-999.0,92,-99.99,,,-99.99,,2013-04-06 12:32:00,
2013-04-06 06:42:00,26.0,24.0,29.98,East,101,0.0,-999.0,92,-99.99,,,-99.99,,2013-04-06 12:42:00,
2013-04-06 06:52:00,26.0,24.0,29.98,East,101,1.0,-999.0,93,-99.99,,,-99.99,,2013-04-06 12:52:00,
2013-04-06 07:02:00,27.0,26.0,29.98,East,101,0.0,-999.0,94,-99.99,,,-99.99,,2013-04-06 13:02:00,
2013-04-06 07:11:00,27.0,26.0,29.98,East,101,0.0,-999.0,94,-99.99,,,-99.99,,2013-04-06 13:11:00,
2013-04-06 07:23:00,27.0,26.0,29.98,East,101,0.0,-999.0,94,-99.99,,,-99.99,,2013-04-06 13:23:00,
2013-04-06 07:32:00,28.0,27.0,29.99,East,101,0.0,-999.0,94,-99.99,,,-99.99,,2013-04-06 13:32:00,
2013-04-06 07:42:00,28.0,27.0,29.99,East,101,0.0,-999.0,94,-99.99,,,-99.99,,2013-04-06 13:42:00,
2013-04-06 07:53:00,28.0,27.0,29.99,ESE,102,0.0,-999.0,94,-99.99,,,-99.99,,2013-04-06 13:53:00,
2013-04-06 08:02:00,29.0,27.0,29.99,ESE,102,0.0,-999.0,94,-99.99,,,-99.99,,2013-04-06 14:02:00,
2013-04-06 08:12:00,29.0,27.0,29.99,ESE,102,0.0,-999.0,94,-99.99,,,-99.99,,2013-04-06 14:12:00,
2013-04-06 08:22:00,30.0,28.0,29.99,ESE,102,1.0,-999.0,94,-99.99,,,-99.99,,2013-04-06 14:22:00,
2013-04-06 08:32:00,31.0,29.0,30.00,SSW,209,2.0,-999.0,93,-99.99,,,-99.99,,2013-04-06 14:32:00,
2013-04-06 08:42:00,31.0,29.0,30.00,SSW,209,2.0,-999.0,93,-99.99,,,-99.99,,2013-04-06 14:42:00,
2013-04-06 08:52:00,31.0,29.0,29.98,SSW,209,1.0,-999.0,93,-99.99,,,-99.99,,2013-04-06 14:52:00,
2013-04-06 09:01:00,31.0,29.0,29.98,SW,225,2.0,-999.0,92,-99.99,,,-99.99,,2013-04-06 15:01:00,
2013-04-06 09:11:00,31.0,29.0,29.98,SW,225,2.0,-999.0,92,-99.99,,,-99.99,,2013-04-06 15:11:00,
2013-04-06 09:22:00,32.0,30.0,29.98,SW,231,2.0,-999.0,92,-99.99,,,-99.99,,2013-04-06 15:22:00,
2013-04-06 09:32:00,32.0,30.0,29.98,SSW,207,4.0,-999.0,91,-99.99,,,-99.99,,2013-04-06 15:32:00,
2013-04-06 09:42:00,32.0,30.0,29.98,SSW,207,4.0,-999.0,91,-99.99,,,-99.99,,2013-04-06 15:42:00,
2013-04-06 09:53:00,32.0,30.0,29.99,SSW,204,3.0,-999.0,91,-99.99,,,-99.99,,2013-04-06 15:53:00,
2013-04-06 10:03:00,32.0,30.0,29.98,SW,225,2.0,-999.0,92,-99.99,,,-99.99,,2013-04-06 16:03:00,
2013-04-06 10:16:00,32.0,30.0,29.98,SW,225,2.0,-999.0,92,-99.99,,,-99.99,,2013-04-06 16:16:00,
2013-04-06 10:22:00,32.0,30.0,29.99,SW,215,1.0,-999.0,92,-99.99,,,-99.99,,2013-04-06 16:22:00,
2013-04-06 10:32:00,33.0,31.0,29.99,South,189,1.0,-999.0,92,-99.99,,,-99.99,,2013-04-06 16:32:00,
2013-04-06 10:41:00,33.0,31.0,29.99,South,189,1.0,-999.0,92,-99.99,,,-99.99,,2013-04-06 16:41:00,
2013-04-06 10:53:00,33.0,31.0,29.98,South,189,0.0,-999.0,93,-99.99,,,-99.99,,2013-04-06 16:53:00,
2013-04-06 11:02:00,34.0,32.0,29.98,SW,221,1.0,-999.0,93,-99.99,,,-99.99,,2013-04-06 17:02:00,
2013-04-06 11:12:00,34.0,32.0,29.98,SW,221,1.0,-999.0,93,-99.99,,,-99.99,,2013-04-06 17:12:00,
2013-04-06 11:22:00,35.0,33.0,29.98,South,187,0.0,-999.0,93,-99.99,,,-99.99,,2013-04-06 17:22:00,
2013-04-06 11:32:00,37.0,35.0,29.98,SW,227,4.0,-999.0,93,-99.99,,,-99.99,,2013-04-06 17:32:00,
2013-04-06 11:42:00,37.0,35.0,29.98,SW,227,4.0,-999.0,93,-99.99,,,-99.99,,2013-04-06 17:42:00,
2013-04-06 11:52:00,38.0,36.0,29.98,WSW,256,5.0,-999.0,92,-99.99,,,-99.99,,2013-04-06 17:52:00,
2013-04-06 12:02:00,38.0,36.0,29.98,WSW,244,5.0,-999.0,93,-99.99,,,-99.99,,2013-04-06 18:02:00,
2013-04-06 12:12:00,38.0,36.0,29.98,WSW,244,5.0,-999.0,93,-99.99,,,-99.99,,2013-04-06 18:12:00,
2013-04-06 12:22:00,39.0,37.0,29.97,WSW,242,5.0,-999.0,94,-99.99,,,-99.99,,2013-04-06 18:22:00,
2013-04-06 12:32:00,40.0,38.0,29.96,SW,226,6.0,-999.0,91,-99.99,,,-99.99,,2013-04-06 18:32:00,
2013-04-06 12:42:00,40.0,38.0,29.96,SW,226,6.0,-999.0,91,-99.99,,,-99.99,,2013-04-06 18:42:00,
2013-04-06 12:52:00,39.0,37.0,29.96,WSW,248,6.0,-999.0,91,-99.99,,,-99.99,,2013-04-06 18:52:00,
2013-04-06 13:02:00,40.0,38.0,29.95,SW,232,6.0,-999.0,92,-99.99,,,-99.99,,2013-04-06 19:02:00,
2013-04-06 13:12:00,40.0,38.0,29.95,SW,232,6.0,-999.0,92,-99.99,,,-99.99,,2013-04-06 19:12:00,
2013-04-06 13:22:00,41.0,37.0,29.95,SSW,194,7.0,-999.0,86,-99.99,,,-99.99,,2013-04-06 19:22:00,
2013-04-06 13:32:00,40.0,36.0,29.94,South,184,8.0,-999.0,86,-99.99,,,-99.99,,2013-04-06 19:32:00,
2013-04-06 13:41:00,40.0,36.0,29.94,South,184,8.0,-999.0,86,-99.99,,,-99.99,,2013-04-06 19:41:00,
2013-04-06 13:53:00,42.0,38.0,29.93,SSW,192,9.0,-999.0,85,-99.99,,,-99.99,,2013-04-06 19:53:00,
2013-04-06 14:02:00,41.0,36.0,29.93,SW,216,11.0,-999.0,83,-99.99,,,-99.99,,2013-04-06 20:02:00,
2013-04-06 14:12:00,41.0,36.0,29.93,SW,216,11.0,-999.0,83,-99.99,,,-99.99,,2013-04-06 20:12:00,
2013-04-06 14:22:00,42.0,39.0,29.93,SSW,204,9.0,-999.0,90,-99.99,,,-99.99,,2013-04-06 20:22:00,
2013-04-06 14:31:00,43.0,38.0,29.92,SSE,156,9.0,-999.0,81,-99.99,,,-99.99,,2013-04-06 20:31:00,
2013-04-06 14:41:00,43.0,38.0,29.92,SSE,156,9.0,-999.0,81,-99.99,,,-99.99,,2013-04-06 20:41:00,
2013-04-06 14:52:00,44.0,38.0,29.92,SSW,198,8.0,-999.0,78,-99.99,,,-99.99,,2013-04-06 20:52:00,
2013-04-06 15:01:00,43.0,36.0,29.92,South,183,10.0,-999.0,77,-99.99,,,-99.99,,2013-04-06 21:01:00,
2013-04-06 15:12:00,43.0,36.0,29.92,SW,227,8.0,-999.0,76,-99.99,,,-99.99,,2013-04-06 21:12:00,
2013-04-06 15:22:00,43.0,36.0,29.92,SW,227,8.0,-999.0,76,-99.99,,,-99.99,,2013-04-06 21:22:00,
2013-04-06 15:33:00,43.0,37.0,29.92,SSE,164,9.0,-999.0,79,-99.99,,,-99.99,,2013-04-06 21:33:00,
2013-04-06 15:43:00,43.0,37.0,29.92,SSE,164,9.0,-999.0,79,-99.99,,,-99.99,,2013-04-06 21:43:00,
2013-04-06 15:52:00,43.0,36.0,29.91,South,189,6.0,-999.0,76,-99.99,,,-99.99,,2013-04-06 21:52:00,
2013-04-06 16:02:00,43.0,35.0,29.90,South,188,7.0,-999.0,72,-99.99,,,-99.99,,2013-04-06 22:02:00,
2013-04-06 16:12:00,43.0,35.0,29.90,South,188,7.0,-999.0,72,-99.99,,,-99.99,,2013-04-06 22:12:00,
2013-04-06 16:22:00,43.0,35.0,29.91,SW,232,7.0,-999.0,73,-99.99,,,-99.99,,2013-04-06 22:22:00,
2013-04-06 16:33:00,42.0,35.0,29.91,WSW,240,5.0,-999.0,75,-99.99,,,-99.99,,2013-04-06 22:33:00,
2013-04-06 16:42:00,42.0,35.0,29.91,WSW,240,5.0,-999.0,75,-99.99,,,-99.99,,2013-04-06 22:42:00,
2013-04-06 16:53:00,43.0,35.0,29.90,South,184,6.0,-999.0,74,-99.99,,,-99.99,,2013-04-06 22:53:00,
2013-04-06 17:02:00,43.0,34.0,29.91,South,171,9.0,-999.0,70,-99.99,,,-99.99,,2013-04-06 23:02:00,
2013-04-06 17:12:00,43.0,34.0,29.91,South,171,9.0,-999.0,70,-99.99,,,-99.99,,2013-04-06 23:12:00,
2013-04-06 17:22:00,42.0,34.0,29.91,South,187,7.0,-999.0,73,-99.99,,,-99.99,,2013-04-06 23:22:00,
2013-04-06 17:32:00,43.0,34.0,29.91,SSE,155,7.0,-999.0,71,-99.99,,,-99.99,,2013-04-06 23:32:00,
2013-04-06 17:42:00,43.0,34.0,29.91,SSE,155,7.0,-999.0,71,-99.99,,,-99.99,,2013-04-06 23:42:00,
2013-04-06 17:53:00,43.0,34.0,29.91,SSE,150,6.0,-999.0,70,-99.99,,,-99.99,,2013-04-06 23:53:00,
2013-04-06 18:01:00,43.0,34.0,29.91,SSE,157,7.0,-999.0,69,-99.99,,,-99.99,,2013-04-07 00:01:00,
2013-04-06 18:11:00,43.0,34.0,29.91,SSE,157,7.0,-999.0,69,-99.99,,,-99.99,,2013-04-07 00:11:00,
2013-04-06 18:22:00,44.0,34.0,29.91,SSE,152,8.0,-999.0,69,-99.99,,,-99.99,,2013-04-07 00:22:00,
2013-04-06 18:32:00,47.0,34.0,29.90,SW,221,6.0,-999.0,60,-99.99,,,-99.99,,2013-04-07 00:32:00,
2013-04-06 18:42:00,47.0,34.0,29.90,SW,221,6.0,-999.0,60,-99.99,,,-99.99,,2013-04-07 00:42:00,
2013-04-06 18:52:00,45.0,32.0,29.92,SSW,208,7.0,-999.0,60,-99.99,,,-99.99,,2013-04-07 00:52:00,
2013-04-06 19:01:00,44.0,32.0,29.92,South,181,7.0,-999.0,62,-99.99,,,-99.99,,2013-04-07 01:01:00,
2013-04-06 19:11:00,44.0,32.0,29.92,South,181,7.0,-999.0,62,-99.99,,,-99.99,,2013-04-07 01:11:00,
2013-04-06 19:22:00,43.0,32.0,29.91,South,184,7.0,-999.0,64,-99.99,,,-99.99,,2013-04-07 01:22:00,
2013-04-06 19:31:00,38.0,33.0,29.95,South,184,11.0,-999.0,83,-99.99,,,-99.99,,2013-04-07 01:31:00,
2013-04-06 19:42:00,38.0,33.0,29.95,South,184,11.0,-999.0,83,-99.99,,,-99.99,,2013-04-07 01:42:00,
2013-04-06 19:53:00,37.0,34.0,29.94,South,181,1.0,-999.0,89,-99.99,,,-99.99,,2013-04-07 01:53:00,
2013-04-06 20:02:00,36.0,33.0,29.94,ESE,120,1.0,-999.0,90,-99.99,,,-99.99,,2013-04-07 02:02:00,
2013-04-06 20:12:00,36.0,33.0,29.94,ESE,120,1.0,-999.0,90,-99.99,,,-99.99,,2013-04-07 02:12:00,
2013-04-06 20:22:00,35.0,32.0,29.93,ESE,109,1.0,-999.0,90,-99.99,,,-99.99,,2013-04-07 02:22:00,
2013-04-06 20:32:00,35.0,33.0,29.93,ESE,109,0.0,-999.0,91,-99.99,,,-99.99,,2013-04-07 02:32:00,
2013-04-06 20:42:00,35.0,33.0,29.93,ESE,109,0.0,-999.0,91,-99.99,,,-99.99,,2013-04-07 02:42:00,
2013-04-06 20:52:00,34.0,32.0,29.93,ESE,109,0.0,-999.0,92,-99.99,,,-99.99,,2013-04-07 02:52:00,
2013-04-06 21:01:00,34.0,32.0,29.93,ESE,109,0.0,-999.0,93,-99.99,,,-99.99,,2013-04-07 03:01:00,
2013-04-06 21:12:00,34.0,32.0,29.93,ESE,109,0.0,-999.0,93,-99.99,,,-99.99,,2013-04-07 03:12:00,
2013-04-06 21:22:00,34.0,32.0,29.93,South,178,0.0,-999.0,93,-99.99,,,-99.99,,2013-04-07 03:22:00,
2013-04-06 21:33:00,34.0,32.0,29.93,SSE,156,0.0,-999.0,93,-99.99,,,-99.99,,2013-04-07 03:33:00,
2013-04-06 21:42:00,34.0,32.0,29.93,SSE,156,0.0,-999.0,93,-99.99,,,-99.99,,2013-04-07 03:42:00,
2013-04-06 21:53:00,34.0,32.0,29.93,SSE,156,0.0,-999.0,93,-99.99,,,-99.99,,2013-04-07 03:53:00,
2013-04-06 22:02:00,34.0,32.0,29.93,SSE,156,0.0,-999.0,93,-99.99,,,-99.99,,2013-04-07 04:02:00,
2013-04-06 22:12:00,34.0,32.0,29.93,SSE,156,0.0,-999.0,93,-99.99,,,-99.99,,2013-04-07 04:12:00,
2013-04-06 22:23:00,34.0,32.0,29.93,SSE,156,0.0,-999.0,93,-99.99,,,-99.99,,2013-04-07 04:23:00,
2013-04-06 22:32:00,34.0,32.0,29.93,SSE,156,0.0,-999.0,93,-99.99,,,-99.99,,2013-04-07 04:32:00,
2013-04-06 22:43:00,34.0,32.0,29.93,SSE,156,0.0,-999.0,93,-99.99,,,-99.99,,2013-04-07 04:43:00,
2013-04-06 22:52:00,34.0,32.0,29.92,SSE,156,0.0,-999.0,94,-99.99,,,-99.99,,2013-04-07 04:52:00,
2013-04-06 23:01:00,34.0,32.0,29.92,West,275,1.0,-999.0,94,-99.99,,,-99.99,,2013-04-07 05:01:00,
2013-04-06 23:12:00,34.0,32.0,29.92,West,275,1.0,-999.0,94,-99.99,,,-99.99,,2013-04-07 05:12:00,
2013-04-06 23:22:00,34.0,32.0,29.92,West,275,0.0,-999.0,94,-99.99,,,-99.99,,2013-04-07 05:22:00,
2013-04-06 23:32:00,34.0,32.0,29.91,SW,215,2.0,-999.0,93,-99.99,,,-99.99,,2013-04-07 05:32:00,
2013-04-06 23:42:00,34.0,32.0,29.91,SW,215,2.0,-999.0,93,-99.99,,,-99.99,,2013-04-07 05:42:00,
2013-04-06 23:52:00,34.0,32.0,29.91,SSW,200,2.0,-999.0,92,-99.99,,,-99.99,,2013-04-07 05:52:00,